Flight Track Log - Related Links

Times and Time Zones

All times are in EDT time to prevent confusion due to time zone crossing. See the SWA2236 flight status page for this flight to view local times or setup timezone preferences in your user account.

Time Position Orientation Groundspeed Altitude Reporting Facility
EDT Latitude Longitude Course Direction KTS MPH feet Rate Location/Type
Mon 12:16:52 PM 37.7333 -122.2500 150° Southeast 159 183 1,200  Level Northern Cal TRACON
Mon 12:17:52 PM 37.7500 -122.3167 288° West 222 255 3,000 1,850 Climbing Northern Cal TRACON
Mon 12:18:52 PM 37.7667 -122.4000 284° West 277 319 4,900 2,600 Climbing Northern Cal TRACON
Mon 12:19:52 PM 37.7167 -122.4500 218° Southwest 275 316 8,200 3,000 Climbing Northern Cal TRACON
Mon 12:20:52 PM 37.6333 -122.4500 180° South 302 348 10,900 2,550 Climbing Northern Cal TRACON
Mon 12:21:52 PM 37.5333 -122.4333 172° South 346 398 13,300 2,435 Climbing Northern Cal TRACON
Mon 12:22:00 PM 37.3751 -122.3941 150° Southeast  Level FlightAware Approximate
Mon 12:23:10 PM 37.4900 -122.3231 116° Southeast 359 413 16,500  Level Oakland Center
Mon 12:24:12 PM 37.4589 -122.1686 104° East 384 442 19,600 2,537 Climbing Oakland Center
Mon 12:25:13 PM 37.4283 -122.0356 106° East 397 457 21,700 2,146 Climbing Oakland Center
Mon 12:26:15 PM 37.3956 -121.8964 106° East 414 476 24,000 2,081 Climbing Oakland Center
Mon 12:27:17 PM 37.3622 -121.7517 106° East 430 495 26,000 1,902 Climbing Oakland Center
Mon 12:28:18 PM 37.3272 -121.6061 107° East 441 507 27,900 2,049 Climbing Oakland Center
Mon 12:29:20 PM 37.2911 -121.4528 106° East 453 521 30,200 2,244 Climbing Oakland Center
Mon 12:30:21 PM 37.2475 -121.2756 107° East 449 517 32,500 1,366 Climbing Oakland Center
Mon 12:31:23 PM 37.2117 -121.1258 107° East 447 514 33,000 244 Climbing Oakland Center
Mon 12:32:24 PM 37.1747 -120.9772 107° East 448 516 33,000  Level Oakland Center
Mon 12:33:26 PM 37.1400 -120.8289 106° East 446 513 33,000  Level Oakland Center
Mon 12:34:28 PM 37.1039 -120.6822 107° East 443 510 33,000  Level Oakland Center
Mon 12:35:29 PM 37.0672 -120.5367 107° East 441 507 33,000  Level Oakland Center
Mon 12:36:31 PM 37.0300 -120.3928 108° East 438 504 33,000  Level Oakland Center
Mon 12:37:32 PM 36.9936 -120.2467 107° East 438 504 33,000  Level Oakland Center
Mon 12:38:34 PM 36.9569 -120.0967 107° East 442 509 33,000  Level Oakland Center
Mon 12:39:35 PM 36.9122 -119.9233 108° East 438 504 33,000  Level Oakland Center
Mon 12:40:37 PM 36.8844 -119.7697 103° East 446 513 33,000  Level Oakland Center
Mon 12:41:38 PM 36.8814 -119.6122 91° East 455 524 33,000  Level Oakland Center
Mon 12:42:40 PM 36.8783 -119.4539 91° East 457 526 33,000  Level Oakland Center
Mon 12:43:41 PM 36.8758 -119.2964 91° East 455 524 33,000  Level Oakland Center
Mon 12:44:43 PM 36.8725 -119.1394 91° East 454 522 33,000  Level Oakland Center
Mon 12:45:44 PM 36.8694 -118.9822 91° East 454 522 33,000  Level Oakland Center
Mon 12:46:46 PM 36.8664 -118.8253 91° East 454 522 33,000  Level Oakland Center
Mon 12:47:47 PM 36.8617 -118.6375 92° East 452 520 33,000  Level Oakland Center
Mon 12:48:49 PM 36.8575 -118.4786 92° East 457 526 33,000  Level Oakland Center
Mon 12:49:51 PM 36.8528 -118.3325 92° East 460 529 33,000  Level Oakland Center
Mon 12:50:52 PM 36.8492 -118.1761 92° East 455 524 33,000  Level Oakland Center
Mon 12:51:54 PM 36.8453 -118.0206 92° East 452 520 33,000  Level Oakland Center
Mon 12:52:55 PM 36.8394 -117.8300 92° East 456 525 33,000  Level Oakland Center
Mon 12:53:57 PM 36.8044 -117.6828 106° East 445 512 33,000  Level Oakland Center
Mon 12:54:58 PM 36.7578 -117.5414 112° Southeast 443 510 33,000  Level Oakland Center
Mon 12:56:00 PM 36.7103 -117.3981 112° Southeast 446 513 33,000 -42 Level Oakland Center
Mon 12:57:22 PM 36.6503 -117.2136 112° Southeast 444 511 32,900 -458 Descending Los Angeles Center
Mon 12:58:24 PM 36.6031 -117.0725 113° Southeast 442 509 31,900 -919 Descending Los Angeles Center
Mon 12:59:26 PM 36.5461 -116.9028 113° Southeast 442 509 31,000 -1,403 Descending Los Angeles Center
Mon 01:00:28 PM 36.5208 -116.7542 102° East 437 503 29,000 -2,032 Descending Los Angeles Center
Mon 01:01:30 PM 36.4950 -116.6036 102° East 444 511 26,800 -2,032 Descending Los Angeles Center
Mon 01:02:32 PM 36.4589 -116.4650 108° East 424 488 24,800 -1,920 Descending Los Angeles Center
Mon 01:03:35 PM 36.4033 -116.3453 120° Southeast 403 464 22,800 -2,112 Descending Los Angeles Center
Mon 01:04:37 PM 36.3406 -116.2028 119° Southeast 395 455 20,400 -1,839 Descending Los Angeles Center
Mon 01:05:39 PM 36.2889 -116.0903 120° Southeast 376 433 19,000 -1,113 Descending Los Angeles Center
Mon 01:06:41 PM 36.2358 -115.9742 120° Southeast 364 419 18,100 -1,324 Descending Los Angeles Center
Mon 01:07:55 PM 36.1803 -115.8364 117° Southeast 363 418 16,000 -1,403 Descending Los Angeles Center
Mon 01:08:45 PM 36.1486 -115.7411 112° Southeast 362 417 15,200 -1,125 Descending Los Angeles Center
Mon 01:09:47 PM 36.1125 -115.6294 112° Southeast 352 405 13,900 -1,065 Descending Los Angeles Center
Mon 01:10:49 PM 36.0789 -115.5256 112° Southeast 347 399 13,000 -581 Descending Los Angeles Center
Mon 01:11:51 PM 36.0469 -115.4258 112° Southeast 326 375 12,700 -1,008 Descending Los Angeles Center
Mon 01:12:54 PM 36.0261 -115.3069 102° East 312 359 10,900 -1,122 Descending Los Angeles Center
Mon 01:13:54 PM 36.0181 -115.2086 96° East 284 327 10,400 -532 Descending Los Angeles Center
Mon 01:14:58 PM 36.0122 -115.1244 95° East 239 275 9,800 -934 Descending Los Angeles Center
Mon 01:15:56 PM 36.0072 -115.0500 95° East 226 260 8,500 -871 Descending Los Angeles Center
Mon 01:17:02 PM 36.0039 -114.9739 93° East 220 253 8,000 -893 Descending Los Angeles Center
Mon 01:17:57 PM 36.0239 -114.9194 66° East 203 234 6,700 -1,345 Descending Los Angeles Center
Mon 01:18:58 PM 36.0700 -114.9519 330° Northwest 187 215 5,400 -1,313 Descending Los Angeles Center
Mon 01:20:05 PM 36.0731 -115.0150 273° West 160 184 3,900 -1,131 Descending Los Angeles Center
Mon 01:21:00 PM 36.0742 -115.0597 272° West 151 174 3,100 -836 Descending Los Angeles Center
Mon 01:22:07 PM 36.0739 -115.1183 270° West 149 171 2,200 -806 Descending Los Angeles Center
Mon 01:24:00 PM 36.0667 -115.1500 270° West  Level FlightAware Approximate

Login

Don't have an account? Register now (free) for customized features, flight alerts, and more!